Location: Praha
(50.0830°N, 14.4670°E)
Time: 10:26:28
(UTC+02:00)

ISS - Pass Details

Date: 17 May 2019
Orbit: 407 x 410 km, 51.6° (Epoch: 21 May)

Event Time Altitude Azimuth Distance (km) Brightness Sun altitude
Exits shadow 02:12:39 11° 282° (WNW) 1,400 -1.2 -18.8°
Maximum altitude 02:15:46 67° 6° (N) 450 -3.5 -18.6°
Drops below altitude 10° 02:19:03 10° 89° (E) 1,475 -0.7 -18.4°
Sets 02:21:09 0° 92° (E) 2,337 0.3 -18.3°
